This is the latest recevied weather packets stored in our database for station/object VR2MW-X. If no packets are shown the sender has not sent any weather packets the latest 10 day(s).
| Time | Temp. | Humidity | Pressure | Rain* | Wind** | Luminosity | Snow |
|---|---|---|---|---|---|---|---|
| 1777884082 | 23.89° C | 76% | 1014 hPa | - | - | - | - |
| 1777883472 | 25° C | 74% | 1014.1 hPa | - | - | - | - |
| 1777882861 | 25° C | 73% | 1014.3 hPa | - | - | - | - |
| 1777882251 | 25° C | 71% | 1014.6 hPa | - | - | - | - |
| 1777881030 | 25° C | 71% | 1014.8 hPa | - | - | - | - |
| 1777880419 | 25° C | 69% | 1014.8 hPa | - | - | - | - |
| 1777879809 | 25° C | 70% | 1015.1 hPa | - | - | - | - |
| 1777879197 | 25° C | 67% | 1015.1 hPa | - | - | - | - |
| 1777878587 | 25° C | 68% | 1014.8 hPa | - | - | - | - |
| 1777877976 | 26.11° C | 64% | 1015.1 hPa | - | - | - | - |
| 1777877365 | 26.11° C | 63% | 1015.3 hPa | - | - | - | - |
| 1777876754 | 26.11° C | 62% | 1015.3 hPa | - | - | - | - |
| 1777876143 | 27.22° C | 62% | 1015.3 hPa | - | - | - | - |
| 1777875533 | 27.22° C | 61% | 1015.3 hPa | - | - | - | - |
| 1777874922 | 27.22° C | 60% | 1015.3 hPa | - | - | - | - |
| 1777874310 | 27.22° C | 58% | 1015.2 hPa | - | - | - | - |
| 1777873700 | 27.22° C | 58% | 1015.2 hPa | - | - | - | - |
| 1777873090 | 27.22° C | 58% | 1015.2 hPa | - | - | - | - |
| 1777872479 | 27.22° C | 58% | 1015.3 hPa | - | - | - | - |
| 1777871869 | 27.22° C | 61% | 1015.6 hPa | - | - | - | - |
| 1777871258 | 27.22° C | 61% | 1015.6 hPa | - | - | - | - |
| 1777870648 | 26.11° C | 62% | 1015.6 hPa | - | - | - | - |
| 1777870037 | 26.11° C | 61% | 1015.7 hPa | - | - | - | - |
| 1777869427 | 26.11° C | 60% | 1015.7 hPa | - | - | - | - |
| 1777868816 | 25° C | 65% | 1016 hPa | - | - | - | - |
* Rain since midnight (hover to see other rain measurements)
** Current wind speed in m/s (hover to see current wind gust speed)